Regional Weather Roundup
Issued by NWS Upton, NY

Home | Current Version | Previous Version | Text Only | Print | Product List | Glossary On
Versions: 1 2 3 4 5 6 7 8 9 10 11 12 13 14 15 16 17 18 19 20 21 22 23 24 25 26 27 28 29 30 31 32 33 34 35 36 37 38 39 40 41 42 43 44 45 46 47 48 49 50
000
ASUS41 KOKX 260507
RWROKX

REGIONAL WEATHER ROUNDUP
NATIONAL WEATHER SERVICE NEW YORK NY
100 AM EDT SUN APR 26 2015

NOTE: "FAIR" INDICATES FEW OR NO CLOUDS BELOW 12,000 FEET WITH NO
SIGNIFICANT WEATHER AND/OR OBSTRUCTIONS TO VISIBILITY.

NYZ071-072-176-178-NJZ106-104-260600-
NEW YORK CITY METRO AREA


CITY           SKY/WX    TMP DP  RH WIND       PRES   REMARKS
CENTRAL PARK   MOCLDY    52  26  36 VRB6      29.72S
LAGUARDIA APRT MOCLDY    48  35  60 E5        29.69F
KENNEDY INTL   MOCLDY    45  35  68 NE5       29.70S
NEWARK/LIBERTY MOCLDY    50  28  42 N12       29.69F
BRNX BOT. GARD   N/A     48  28  46 NE3       29.69F
TETERBORO      MOCLDY    50  26  39 N3        29.69F
$$

NYZ177-179-078>081-260600-
LONG ISLAND NEW YORK

CITY           SKY/WX    TMP DP  RH WIND       PRES   REMARKS
FARMINGDALE    MOCLDY    42  35  76 CALM      29.70S
ISLIP          MOCLDY    41  35  79 CALM      29.68F
SHIRLEY        MOCLDY    37  32  82 CALM      29.70F
WESTHAMPTON    MOCLDY    30  25  81 N3        29.71F
MONTAUK POINT    N/A     41  33  73 VRB3      29.71S
$$

NYZ052-065-067-260600-
HUDSON VALLEY

CITY           SKY/WX    TMP DP  RH WIND       PRES   REMARKS
WHITE PLAINS   MOCLDY    46  26  45 N8        29.69S
NEWBURGH       CLEAR     41  28  60 CALM      29.72S
MONTGOMERY     CLEAR     35  29  78 CALM      29.71S
POUGHKEEPSIE   CLEAR     37  29  72 CALM      29.72R
ALBANY         MOCLDY    44  27  51 NW6       29.75F
$$

NJZ001-105-106-008-010-013-015-019>022-104-260600-
NEW JERSEY

CITY           SKY/WX    TMP DP  RH WIND       PRES   REMARKS
NEWARK/LIBERTY MOCLDY    50  28  42 N12       29.69F
TETERBORO      MOCLDY    50  26  39 N3        29.69F
CALDWELL       MOCLDY    48  26  42 CALM      29.70F
MORRISTOWN     MOCLDY    48  28  46 CALM      29.70F
SOMERVILLE     MOCLDY    39  32  76 CALM      29.68F
SUSSEX         PTCLDY    37  28  70 CALM      29.72S
ANDOVER          N/A     42  31  64 CALM      29.70F
TRENTON        MOCLDY    46  27  47 NW7       29.68F
MILLVILLE      CLOUDY    45  39  79 W3        29.68F
ATLANTIC CITY  CLOUDY    46  34  62 W3        29.68F
WRIGHTSTOWN    CLOUDY    43  30  59 SW3       29.65F
TOMS RIVER     CLOUDY    43  32  65 CALM      29.67F
BELMAR         MOCLDY    45  25  45 W5        29.68F
$$

PAZ047>061-062-071-260600-
EASTERN PENNSYLVANIA

CITY           SKY/WX    TMP DP  RH WIND       PRES   REMARKS
PHILADELPHIA   CLOUDY    48  37  65 W7        29.69F
ALLENTOWN      PTCLDY    44  28  53 CALM      29.70F
SCRANTON       PTCLDY    42  25  50 NE3       29.71F
$$

CTZ002-004>006-009-010-012-RIZ004-006-007-MAZ004-011-015-260600-
SOUTHERN NEW ENGLAND
 IN CT

CITY           SKY/WX    TMP DP  RH WIND       PRES   REMARKS
BRADLEY INTL   PTCLDY    45  27  49 N5        29.71S
HARTFORD       CLEAR     45  28  51 VRB3      29.71S
DANBURY        PTCLDY    35  27  72 CALM      29.72R
WTRBRY/OXFORD  CLEAR     43  27  52 NE8       29.71S
BRIDGEPORT     PTCLDY    42  35  76 CALM      29.71R
MERIDEN        CLEAR     46  27  47 N5        29.71R
NEW HAVEN      CLEAR     39  33  79 CALM      29.70S
CHESTER        FAIR      46  28  49 N6        29.70S
GROTON         CLEAR     42  29  59 N5        29.70S
WILLIMANTIC    CLOUDY    41  32  70 CALM      29.71F

 IN RI

CITY           SKY/WX    TMP DP  RH WIND       PRES   REMARKS
PROVIDENCE     CLOUDY    46  31  55 NE5       29.71F
BLOCK ISLAND   CLEAR     43  36  75 NE5       29.69S
WESTERLY       PTCLDY    42  33  70 CALM      29.71S

 IN MA

CITY           SKY/WX    TMP DP  RH WIND       PRES   REMARKS
BOSTON         MOCLDY    44  29  55 NW6       29.72F
WORCESTER      CLEAR     42  27  55 N10       29.69F
WESTFIELD      CLEAR     41  28  60 CALM      29.71F
PROVINCETOWN   CLEAR    N/A N/A N/A N9        29.70F
NANTUCKET      CLOUDY    44  37  76 NW6       29.70F
$$

ANZ330-335-338-340-345-350-353-355-260600-
COASTAL MARINE OBSERVATIONS


STATION/POSITION TIME  SKY/WX   TEMP    WIND        PRES    VSBY  WAVE
                                AIR SEA DIR/SP/G                  HT/PER
                 (UTC)          (F)     (DEG/KT/KT) (MB)    (MI)  (FT/S)
NY HARB ENTRANCE 0450            47 45  210/  6/  6 1004.8          2/ 5
4S FIRE IS       0403               44                N/A           2/ 4
20S FIRE ISLAND  0450            45 43  250/  6/  8 1005.4          2/ 5
23SW MTP         NOT AVBL
HUDSON CANYON    NOT AVBL
EXECUTION ROCKS  NOT AVBL
WESTERN LI SOUND NOT AVBL
CENTRAL LI SOUND NOT AVBL
EASTERN LI SOUND 0400            44     280/  4/  6   N/A
ROBBINS REEF     0412            53      40/ 12/ 16 1004.3
$$


>>>>>>>>>>>>>>>>>>>>>>>>>>>> KEY <<<<<<<<<<<<<<<<<<<<<<<<<<<
>                                                          <
>     SKY/WX - SKY CONDITION/PRESENT WEATHER               <
>     TMP    - TEMPERATURE IN FAHRENHEIT                   <
>     DP     - DEWPOINT IN FAHRENHEIT                      <
>     RH     - RELATIVE HUMIDITY IN PERCENT                <
>     WIND   - DIRECTION AND SPEED IN MPH                  <
>     PRES   - MEAN SEA LEVEL PRESSURE IN INCHES OF HG     <
>     WCI    - WIND CHILL INDEX                            <
>     VSB    - VISIBILITY IN MILES                         <
>     HX     - HEAT INDEX                                  <
>     TC     - TEMPERATURE IN CELSIUS                      <
>     VRB    - VARIABLE WIND DIRECTION                     <
>                                                          <
>>>>>>>>>>>>>>>>>>>>>>>>>>>> KEY <<<<<<<<<<<<<<<<<<<<<<<<<<<





USA.gov is the U.S. government's official web portal to all federal, state and local government web resources and services.